BREEZE-M DEB (TANK), 37828

Orbit data source: Space-Track

BREEZE-M DEB (TANK), 37828 is space debris in HEO originally from a launch on Thu, 29 Sep 2011 UTC launched from the Tyuratam Missile And Space Complex (TTMTR). Debris objects in space refer to the collection of defunct objects orbiting the Earth. Examples of debris include non-operational satellites, rocket bodies, and fragments generated from explosions, collisions, or faulty payload assembly.

Loading next visibility...
Identifier
37828, 2011-054C
Orbit
HEO
Country
Flag of CISCIS
Related business
Manufacturer
Khrunichev
Mission
Spacecraft
Bus & Motor
BRIZ TANK, Unknown motor
Mass
~1,000 kg wet, 1,000 kg dry
Launch date (UTC)
2011-09-29 (15 years ago)
Launch vehicle
Unknown
Launch site
Tyuratam Missile And Space Complex (TTMTR)
Object type
Payload
Rocket body
Debris
Shape & HBR
Torus, 3.0 m
Radar Cross Section
8.218 m², Large (>1 m²)

Expand to show TLE details & history
Last TLE update: 16 hours ago

TLE from 16 hours ago
0 BREEZE-M DEB (TANK)
1 37828U 11054C   26264.58632653  .00002279  00000-0  40862-3 0  9990
2 37828  49.4118 258.2697 5485608 226.7319  72.0821  4.83198632252690
Epoch: 2026-09-21T14:04Z
TLE epoch observation values (Epoch: 2026-09-21T14:04:18.612Z)
Latitude
-0.00007°
Longitude
46.71956°
Altitude
10,184.098 km
Speed
4.601 km/s
True Right ascension
17h 13m 02s
True Declination
0° 00' 00"
Sunlit
Object was in daylight at epoch
Visualization orbit readout
Latitude
Unknown
Longitude
Unknown
Altitude
Unknown
Speed
Unknown
Apparent Right ascension
Unknown
Apparent Declination
Unknown
Sunlit
N/A
Visualization observer readout
Local Sidereal Time
22:51:59
Azimuth
Unknown
Elevation
Unknown
Doppler factor
Unknown
Orbital elements
Apogee altitude
16,509.456 km
Perigee altitude
294.095 km
Semi-major axis
14,779.912 km
Eccentricity
0.54856
Inclination
49.4118°
RAAN
258.2697°
Arg. of periapsis
226.7319°
True anomaly
133.32041°
Mean anomaly
72.0821°
Eccentric anomaly
102.73869°
Mean motion
1.20791 °/min
Orbital period
298.03 mins
BSTAR
0.00040862
Loading maneuver chart data...
Computing Atmospheric mass density...
Loading historical data...
Loading historical data...
Loading historical data...
Loading historical data...
Loading historical data...
Loading historical data...
Loading historical data...
Other satellites on launch #54 in the year 2011 (2011-09-29 UTC)

Documentation

Showing up to 5 results
|